User: anonymous   Login
Location: Mentone
(34.5413°N, 85.5351°W)
Time: 08:59:44
(UTC-05:00)
Language:

Centaur AC-72 - Orbit

View from above orbital plane
View from above orbital plane
View from above satellite
View from above satellite

Ground track
Ground track

The orbit data is extracted from the following two-line orbital elements,

1 21907U 92013B   16267.33053294 -.00000267 +00000-0 +00000-0 0  9991
2 21907 019.6277 354.6665 6956462 356.4032 005.1961 02.25603620202191
Epoch (UTC): 23 September 2016 07:55:58
Eccentricity: 0.6956462
inclination: 19.6277°
perigee height: 1096 km
apogee height: 35261 km
right ascension of ascending node: 354.6665°
argument of perigee: 356.4032°
revolutions per day: 2.25603620
mean anomaly at epoch: 5.1961°
orbit number at epoch: 20219

The dashed part of the orbit path shows where the satellite is in the earth's shadow,  

DLR